CAPE
53 20 45 31 19 34 47 66 56 48 43 53 21 41 18 48 32 29 58 97 249 118 90 100 103 111 92 154 139 39 120 46 41 68 37 41 93 11 32 9 20 41 55 25 51 127 26 0 0 0 65 4 0 0
30 4 23 44 80 83 82 67 56 57 48 27 37 15 23 54 23 3 3 27 92 136 94 10 18 0 14 116 135 100 0 0 5 13 40 4 156 30 22 18 3 37 11 104 18 43 68 0 9 0 5 2 0 0
13 5 3 8 28 36 23 6 5 0 13 22 13 18 39 51 39 16 8 13 35 66 19 6 4 1 1 41 186 94 175 0 0 0 38 109 190 71 136 40 2 0 0 0 0 5 0 2 0 0 0 0 0 0
7 10 13 18 26 29 28 24 20 10 5 7 12 21 43 44 12 6 32 24 45 38 34 5 49 1 0 0 131 60 55 76 102 96 160 64 127 0 68 29 9 1 0 0 0 0 0 0 3 9 0 0 0 0
16 7 3 3 11 8 5 3 2 3 16 26 35 33 43 10 19 27 48 26 8 8 19 32 33 17 7 18 63 99 81 214 390 203 19 27 130 69 0 0 0 0 0 1 2 10 36 135 38 5 0 0 0 0
22 15 6 9 10 6 8 4 4 16 27 33 44 35 17 13 12 5 23 24 10 0 7 38 70 42 5 6 52 123 129 77 156 137 228 113 50 40 118 0 0 0 0 0 2 0 0 0 0 0 0 0 0 0
28 25 15 9 4 5 4 4 4 4 5 10 24 18 8 2 36 18 19 6 2 13 8 29 67 0 5 22 235 140 135 100 89 95 109 140 218 63 71 21 3 0 0 0 0 0 0 0 0 0 0 0 0 0
14 20 19 21 10 1 0 2 4 14 23 26 37 21 12 6 0 3 148 6 42 68 7 9 62 89 49 56 116 193 144 120 153 108 75 86 62 80 63 1 0 0 0 0 0 0 0 0 0 0 0 0 0 0
35 29 20 15 13 9 1 0 5 15 31 41 39 39 63 26 23 35 5 0 4 1 31 4 79 104 81 10 5 0 21 12 52 86 67 85 70 64 8 0 5 7 0 0 0 0 0 0 0 0 0 0 0 0
19 11 14 17 27 33 27 21 30 26 28 19 3 37 49 5 9 0 17 23 13 31 50 15 4 3 17 3 1 15 2 0 0 2 60 79 60 18 0 0 0 0 0 0 0 0 0 0 0 0 0 0 0 0
43 32 17 18 23 25 29 15 14 26 8 23 63 44 34 13 139 61 45 24 33 24 22 5 1 1 1 10 3 5 9 2 7 0 77 49 28 8 2 0 0 0 0 0 0 0 0 0 0 0 0 1 0 0
42 31 23 26 30 15 16 7 3 3 28 44 53 86 130 105 24 4 24 3 16 11 64 79 58 6 56 37 2 5 8 3 10 0 0 6 10 12 8 4 3 0 0 0 0 0 0 0 0 0 1 2 2 0
2 11 15 4 26 33 12 25 29 20 24 55 77 73 110 6 105 1 1 3 9 5 6 5 8 38 8 5 5 3 9 7 2 1 3 20 16 4 5 4 3 5 1 0 0 0 0 0 2 0 1 3 2 6
0 0 14 14 24 8 7 0 0 0 0 4 5 6 11 6 5 7 8 7 5 0 2 4 2 0 0 8 1 15 4 4 18 9 12 14 12 1 4 1 2 2 0 1 1 1 2 3 3 2 2 3 1 1
2 4 14 21 5 1 1 0 0 0 3 4 4 4 8 12 7 12 9 18 8 4 1 0 0 1 0 8 8 8 21 9 10 14 20 16 10 7 7 5 3 3 2 1 2 2 1 2 1 2 3 4 3 2
0 0 22 12 2 0 0 0 2 3 3 5 2 3 5 6 5 7 5 4 6 1 0 2 2 11 9 9 2 5 3 7 13 15 9 17 15 8 5 4 4 3 5 6 6 5 4 3 3 5 4 3 3 3
0 13 17 2 0 0 0 1 5 9 14 10 10 13 6 11 6 8 8 6 5 7 7 5 2 5 2 2 4 8 8 12 13 18 8 14 13 11 11 9 8 8 7 7 6 6 7 8 6 3 3 5 3 3
14 8 0 0 0 0 1 4 6 3 7 9 13 17 17 16 8 8 6 12 3 2 0 4 0 1 6 4 5 9 10 11 24 13 10 9 8 7 9 8 9 12 13 11 9 9 6 4 3 6 5 5 4 4
8 7 7 4 0 0 1 2 0 2 9 16 7 9 9 13 11 7 6 0 1 1 0 0 2 5 10 11 9 11 9 9 15 10 9 7 7 8 7 6 8 6 5 6 5 8 10 8 9 8 8 5 7 8
1 0 0 0 0 0 1 11 0 1 1 1 2 3 6 8 6 16 7 2 0 0 1 2 11 13 11 11 15 12 9 8 12 5 4 6 9 4 8 7 8 9 5 4 7 3 4 3 5 4 5 6 6 9
0 0 0 0 0 0 2 5 11 2 4 4 3 0 1 0 10 14 6 4 4 7 11 21 18 16 15 14 15 12 9 5 5 6 6 3 7 6 5 5 4 4 5 6 4 5 4 6 7 6 7 9 9 10
0 0 0 0 0 0 0 0 16 9 15 17 6 0 3 4 2 3 3 10 11 17 24 13 14 11 5 6 7 8 8 5 5 3 2 2 2 2 5 7 3 4 5 7 4 5 5 3 5 5 7 10 6 5
0 0 0 0 0 0 0 0 0 0 0 1 4 2 1 2 1 0 3 7 13 17 18 17 13 9 7 9 4 6 5 4 4 5 4 5 4 4 2 2 2 2 0 0 0 0 1 0 0 2 3 2 3 3
0 0 0 0 0 0 0 0 0 0 0 2 3 2 2 2 0 1 5 9 13 9 6 5 6 4 1 0 0 0 0 0 0 0 0 0 0 0 0 0 1 2 1 1 2 2 2 3 0 2 2 2 2 3
0 0 0 0 0 0 0 0 0 0 2 1 1 2 1 0 1 2 3 7 9 8 8 6 3 2 1 1 0 0 0 0 0 0 0 1 2 1 0 0 2 1 4 5 4 4 4 3 3 3 3 2 1 1
0 2 1 2 0 0 1 0 1 0 1 0 2 0 0 0 0 2 4 8 7 5 6 8 6 2 1 1 0 0 0 0 0 0 0 0 0 2 1 0 1 1 5 6 6 4 2 3 3 2 3 1 1 2
0 0 1 0 0 0 0 1 0 0 0 1 1 0 0 0 1 4 9 6 2 4 3 4 4 2 2 2 1 1 0 0 0 0 0 0 0 1 2 2 1 2 3 2 3 3 3 3 2 2 2 3 4 3
0 0 0 0 0 0 0 0 0 0 2 2 0 0 0 0 0 6 5 3 2 1 2 2 1 1 2 2 2 3 2 1 1 0 1 2 3 4 2 4 0 0 1 1 4 4 2 2 1 1 0 0 0 2
0 0 0 0 0 0 2 1 1 2 2 0 0 0 1 2 4 6 8 6 6 2 0 0 1 1 1 0 1 0 1 0 0 0 0 0 0 3 3 4 3 2 3 2 0 1 1 1 0 0 0 0 1 2
0 0 0 0 0 0 2 3 2 3 2 3 1 2 2 4 5 4 7 6 5 4 3 2 0 0 0 0 0 1 0 1 0 0 0 0 1 2 2 2 2 1 1 2 1 0 0 0 0 0 0 0 0 0
0 0 0 1 1 2 1 0 0 0 0 1 1 2 2 4 4 3 1 0 0 0 0 0 0 0 0 0 0 0 0 1 0 0 0 0 1 2 1 0 1 1 1 0 0 0 0 0 0 0 0 0 0 0
0 0 0 0 1 0 0 1 2 1 1 1 1 0 0 1 1 3 1 1 2 2 0 0 0 1 0 0 0 0 0 0 0 0 0 1 3 1 1 0 0 0 0 0 0 0 0 0 0 0 0 0 0 0
0 0 0 0 1 1 2 2 0 1 1 1 1 1 0 0 0 2 0 0 1 0 0 0 1 1 0 0 0 0 0 0 0 0 0 0 0 0 0 0 0 0 0 0 0 0 0 0 0 0 0 0 0 0
CIN
-1 -4 -2 -7 -0 -0 -0 -0 -0 -0 -0 -0 -1 -0 -1 -0 -1 -1 -1 -3 -0 -0 -0 -1 -0 -0 -0 -0 -0 -0 -0 -4 -5 -1 -15 -16 -8 -53 -2 -31 -43 -61 -64 -110 -58 -8 -11 -0 -0 -0 -23 -0 -0 -0
-4 -14 -7 -5 -3 -1 -0 -0 -0 -0 -0 -1 -0 -0 -0 -0 -2 -5 -1 -9 -12 -1 -0 -25 -22 -0 -11 -0 -0 -0 -0 -0 -0 -0 -0 -0 -2 -75 -5 -6 -6 -23 -30 -11 -59 -9 -42 -0 -55 -0 -4 -5 -0 -0
-5 -13 -13 -9 -6 -1 -0 -8 -14 -1 -13 -0 -0 -0 -0 -0 -0 -16 -0 -1 -2 -0 -0 -0 -0 -11 -4 -39 -33 -0 -1 -0 -0 -0 -8 -4 -11 -42 -9 -23 -7 -0 -0 -0 -0 -58 -13 -17 -0 -0 -0 -0 -0 -0
-0 -6 -8 -6 -3 -1 -4 -7 -3 -0 -0 -0 -0 -0 -0 -0 -1 -3 -0 -0 -0 -0 -1 -3 -16 -9 -0 -0 -38 -34 -2 -23 -14 -28 -4 -12 -16 -0 -4 -5 -34 -46 -0 -0 -0 -0 -23 -0 -212 -109 -0 -0 -0 -0
-0 -0 -0 -1 -0 -0 -0 -1 -0 -0 -0 -0 -0 -0 -0 -2 -0 -2 -0 -0 -12 -2 -1 -0 -20 -1 -10 -8 -8 -9 -13 -0 -0 -1 -1 -3 -8 -22 -0 -0 -0 -0 -0 -21 -56 -74 -92 -3 -107 -70 -0 -0 -0 -0
-0 -0 -0 -0 -0 -0 -1 -0 -0 -0 -0 -0 -0 -0 -0 -1 -4 -0 -0 -0 -16 -0 -0 -4 -1 -0 -0 -0 -8 -3 -4 -0 -0 -0 -0 -0 -13 -15 -20 -0 -0 -0 -0 -3 -73 -0 -5 -0 -0 -0 -0 -0 -0 -0
-0 -0 -0 -0 -1 -0 -1 -1 -1 -0 -1 -0 -0 -0 -0 -2 -0 -0 -0 -0 -4 -1 -0 -1 -0 -0 -19 -3 -0 -1 -7 -0 -0 -0 -0 -0 -0 -31 -17 -2 -18 -0 -0 -0 -0 -0 -0 -0 -0 -0 -0 -0 -0 -0
-1 -0 -0 -0 -0 -3 -1 -1 -2 -0 -0 -0 -0 -0 -0 -5 -0 -5 -0 -17 -8 -0 -5 -1 -0 -0 -1 -6 -1 -1 -4 -0 -0 -0 -3 -0 -1 -0 -0 -0 -0 -0 -0 -0 -0 -0 -0 -0 -0 -0 -0 -0 -0 -0
-1 -1 -3 -2 -0 -0 -0 -1 -0 -0 -0 -0 -0 -1 -0 -0 -0 -2 -1 -1 -6 -0 -0 -0 -0 -0 -7 -25 -9 -0 -16 -1 -0 -0 -0 -0 -0 -0 -0 -0 -10 -12 -0 -0 -0 -0 -0 -0 -0 -0 -0 -0 -0 -0
-0 -5 -4 -5 -6 -0 -0 -0 -0 -0 -0 -1 -3 -0 -2 -0 -7 -2 -7 -0 -0 -0 -0 -0 -0 -0 -10 -0 -1 -0 -0 -0 -0 -3 -7 -0 -0 -0 -0 -0 -0 -0 -0 -0 -0 -0 -0 -0 -0 -0 -0 -0 -0 -0
-1 -1 -3 -5 -7 -5 -0 -1 -0 -0 -1 -1 -0 -0 -0 -15 -0 -0 -0 -1 -0 -0 -4 -0 -0 -0 -0 -7 -0 -0 -0 -0 -0 -0 -1 -2 -7 -7 -0 -0 -0 -0 -0 -0 -0 -0 -0 -0 -0 -0 -0 -0 -0 -0
-0 -0 -2 -6 -8 -2 -0 -0 -2 -0 -2 -2 -3 -0 -0 -0 -8 -0 -4 -0 -0 -7 -16 -16 -4 -0 -0 -0 -1 -0 -0 -0 -0 -0 -0 -0 -0 -0 -0 -0 -0 -0 -0 -0 -0 -0 -0 -0 -0 -0 -0 -0 -0 -0
-6 -0 -3 -8 -4 -5 -7 -5 -9 -20 -0 -0 -2 -7 -0 -17 -3 -0 -0 -0 -0 -0 -0 -12 -2 -0 -9 -0 -0 -0 -0 -0 -0 -0 -0 -0 -0 -0 -0 -0 -0 -0 -0 -0 -0 -0 -0 -0 -0 -0 -0 -0 -0 -0
-0 -3 -0 -1 -6 -7 -18 -0 -10 -2 -0 -0 -5 -0 -0 -0 -0 -0 -0 -0 -0 -0 -0 -5 -0 -0 -0 -0 -0 -0 -0 -0 -0 -0 -0 -0 -0 -0 -0 -0 -0 -0 -0 -0 -0 -0 -0 -0 -0 -0 -0 -0 -0 -0
-7 -3 -0 -4 -9 -0 -0 -0 -0 -0 -0 -0 -0 -0 -0 -0 -0 -0 -0 -0 -0 -0 -0 -0 -0 -0 -0 -0 -0 -0 -0 -0 -0 -0 -0 -0 -0 -0 -0 -0 -0 -0 -0 -0 -0 -0 -0 -0 -0 -0 -0 -0 -0 -0
-0 -2 -0 -0 -0 -0 -0 -0 -0 -0 -0 -0 -0 -0 -0 -0 -0 -0 -0 -0 -0 -0 -0 -0 -0 -0 -0 -0 -0 -0 -0 -0 -0 -0 -0 -0 -0 -0 -0 -0 -0 -0 -0 -0 -0 -0 -0 -0 -0 -0 -0 -0 -0 -0
-0 -0 -0 -0 -0 -0 -0 -0 -0 -0 -0 -0 -0 -0 -0 -0 -0 -0 -0 -0 -0 -0 -0 -0 -0 -0 -0 -0 -0 -0 -0 -0 -0 -0 -0 -0 -0 -0 -0 -0 -0 -0 -0 -0 -0 -0 -0 -0 -0 -0 -0 -0 -0 -0
-0 -0 -0 -0 -0 -0 -0 -0 -0 -0 -0 -0 -0 -0 -0 -0 -0 -0 -0 -0 -0 -0 -0 -0 -0 -0 -0 -0 -0 -0 -0 -0 -0 -0 -0 -0 -0 -0 -0 -0 -0 -0 -0 -0 -0 -0 -0 -0 -0 -0 -0 -0 -0 -0
-0 -0 -0 -6 -0 -0 -0 -0 -0 -0 -0 -0 -0 -0 -0 -0 -0 -0 -0 -0 -0 -0 -0 -0 -0 -0 -0 -0 -0 -0 -0 -0 -0 -0 -0 -0 -0 -0 -0 -0 -0 -0 -0 -0 -0 -0 -0 -0 -0 -0 -0 -0 -0 -0
-0 -0 -0 -0 -0 -0 -0 -0 -1 -0 -0 -0 -0 -0 -0 -0 -0 -0 -0 -0 -0 -0 -0 -0 -0 -0 -0 -0 -0 -0 -0 -0 -0 -0 -0 -0 -0 -0 -0 -0 -0 -0 -0 -0 -0 -0 -0 -0 -0 -0 -0 -0 -0 -0
-0 -0 -0 -0 -0 -0 -0 -0 -0 -0 -0 -0 -0 -0 -0 -0 -0 -0 -0 -0 -0 -0 -0 -0 -0 -0 -0 -0 -0 -0 -0 -0 -0 -0 -0 -0 -0 -0 -0 -0 -0 -0 -0 -0 -0 -0 -0 -0 -0 -0 -0 -0 -0 -0
-0 -0 -0 -0 -0 -0 -0 -0 -0 -0 -0 -0 -0 -0 -0 -0 -0 -0 -0 -0 -0 -0 -0 -0 -0 -0 -0 -0 -0 -0 -0 -0 -0 -0 -0 -0 -0 -0 -0 -0 -0 -0 -0 -0 -0 -0 -0 -0 -0 -0 -0 -0 -0 -0
-0 -0 -0 -0 -0 -0 -0 -0 -0 -0 -0 -0 -0 -0 -0 -0 -0 -0 -0 -0 -0 -0 -0 -0 -0 -0 -0 -0 -0 -0 -0 -0 -0 -0 -0 -0 -0 -0 -0 -0 -0 -0 -0 -0 -0 -0 -0 -0 -0 -0 -0 -0 -0 -0
-0 -0 -0 -0 -0 -0 -0 -0 -0 -0 -0 -0 -0 -0 -0 -0 -0 -0 -0 -0 -0 -0 -0 -0 -0 -0 -0 -0 -0 -0 -0 -0 -0 -0 -0 -0 -0 -0 -0 -0 -0 -0 -0 -0 -0 -0 -0 -0 -0 -0 -0 -0 -0 -0
-0 -0 -0 -0 -0 -0 -0 -0 -0 -0 -0 -0 -0 -0 -0 -0 -0 -0 -0 -0 -0 -0 -0 -0 -0 -0 -0 -0 -0 -0 -0 -0 -0 -0 -0 -0 -0 -0 -0 -0 -0 -0 -0 -0 -0 -0 -0 -0 -0 -0 -0 -0 -0 -0
-0 -0 -0 -0 -0 -0 -0 -0 -0 -0 -0 -0 -0 -0 -0 -0 -0 -0 -0 -0 -0 -0 -0 -0 -0 -0 -0 -0 -0 -0 -0 -0 -0 -0 -0 -0 -0 -0 -0 -0 -0 -0 -0 -0 -0 -0 -0 -0 -0 -0 -0 -0 -0 -0
-0 -0 -0 -0 -0 -0 -0 -0 -0 -0 -0 -0 -0 -0 -0 -0 -0 -0 -0 -0 -0 -0 -0 -0 -0 -0 -0 -0 -0 -0 -0 -0 -0 -0 -0 -0 -0 -0 -0 -0 -0 -0 -0 -0 -0 -0 -0 -0 -0 -0 -0 -0 -0 -0
-0 -0 -0 -0 -0 -0 -0 -0 -0 -0 -0 -0 -0 -0 -0 -0 -0 -0 -0 -0 -0 -0 -0 -0 -0 -0 -0 -0 -0 -0 -0 -0 -0 -0 -0 -0 -0 -0 -0 -0 -0 -0 -0 -0 -0 -0 -0 -0 -0 -0 -0 -0 -0 -0
-0 -0 -0 -0 -0 -0 -0 -0 -0 -0 -0 -0 -0 -0 -0 -0 -0 -0 -0 -0 -0 -0 -0 -0 -0 -0 -0 -0 -0 -0 -0 -0 -0 -0 -0 -0 -0 -0 -0 -0 -0 -0 -0 -0 -0 -0 -0 -0 -0 -0 -0 -0 -0 -0
-0 -0 -0 -0 -0 -0 -0 -0 -0 -0 -0 -0 -0 -0 -0 -0 -0 -0 -0 -0 -0 -0 -0 -0 -0 -0 -0 -0 -0 -0 -0 -0 -0 -0 -0 -0 -0 -0 -0 -0 -0 -0 -0 -0 -0 -0 -0 -0 -0 -0 -0 -0 -0 -0
-0 -0 -0 -0 -0 -0 -0 -0 -0 -0 -0 -0 -0 -0 -0 -0 -0 -0 -0 -0 -0 -0 -0 -0 -0 -0 -0 -0 -0 -0 -0 -0 -0 -0 -0 -0 -0 -0 -0 -0 -0 -0 -0 -0 -0 -0 -0 -0 -0 -0 -0 -0 -0 -0
-0 -0 -0 -0 -0 -0 -0 -0 -0 -0 -0 -0 -0 -0 -0 -0 -0 -0 -0 -0 -0 -0 -0 -0 -0 -0 -0 -0 -0 -0 -0 -0 -0 -0 -0 -0 -0 -0 -0 -0 -0 -0 -0 -0 -0 -0 -0 -0 -0 -0 -0 -0 -0 -0
-0 -0 -0 -0 -0 -0 -0 -0 -0 -0 -0 -0 -0 -0 -0 -0 -0 -0 -0 -0 -0 -0 -0 -0 -0 -0 -0 -0 -0 -0 -0 -0 -0 -0 -0 -0 -0 -0 -0 -0 -0 -0 -0 -0 -0 -0 -0 -0 -0 -0 -0 -0 -0 -0
Wind_Speed
13 11 11 8 5 8 17 23 29 32 33 35 33 41 43 41 26 15 8 8 9 7 7 6 12 15 18 17 14 16 11 8 7 9 7 6 4 5 5 11 8 8 8 5 7 6 12 11 10 12 13 3 7 9
11 4 8 10 11 15 20 24 26 29 30 30 38 41 41 39 26 15 5 2 4 2 5 4 5 7 9 16 15 14 12 13 7 8 6 5 3 2 8 7 5 6 6 4 8 6 4 19 14 16 6 7 7 10
11 6 2 6 12 19 21 21 23 16 23 36 38 38 35 37 30 9 5 4 4 4 3 4 6 3 10 10 12 9 9 9 15 8 5 4 6 6 5 9 6 6 5 5 5 10 13 13 16 6 8 8 5 8
22 16 12 10 13 15 16 16 23 31 36 35 34 33 29 33 22 14 7 3 4 4 3 3 6 7 15 15 14 14 7 9 5 8 6 4 4 6 7 9 12 10 10 13 14 15 12 13 14 14 10 8 7 10
24 26 28 27 25 26 29 29 32 33 32 31 29 29 28 27 22 10 7 4 3 1 2 4 7 12 6 10 17 13 11 11 6 6 3 5 3 3 2 2 11 8 8 9 10 12 8 15 3 14 15 15 11 15
24 26 28 30 31 32 30 30 30 30 30 30 30 31 29 26 20 8 4 1 2 1 1 2 3 13 13 14 18 19 14 10 5 5 5 6 1 6 4 7 13 15 13 14 10 4 7 3 5 4 13 11 13 15
20 23 25 27 29 31 31 31 31 31 30 31 30 30 26 21 8 4 3 5 11 5 1 4 3 5 15 9 10 7 12 9 9 8 5 5 6 5 3 10 7 12 15 13 6 5 5 6 2 7 6 9 10 12
16 20 22 24 25 25 26 27 28 27 25 25 26 27 23 11 6 2 4 17 10 5 2 5 3 4 13 8 5 5 6 6 8 8 2 8 4 3 8 12 17 13 6 8 10 6 3 5 7 9 11 11 14 16
16 16 18 19 22 23 24 24 25 25 25 26 27 23 8 2 2 2 10 16 1 4 3 4 4 4 1 3 3 2 2 3 1 5 6 7 7 10 7 15 12 11 9 10 8 7 7 8 11 11 14 16 14 15
16 16 17 17 18 21 22 23 25 27 31 29 12 4 3 4 12 16 4 6 4 6 5 4 2 2 4 2 2 6 3 3 4 5 6 5 10 10 1 4 6 5 6 6 5 6 9 8 10 14 14 10 11 13
19 19 17 17 18 19 21 22 24 27 20 2 3 3 4 12 4 1 4 5 5 4 5 4 4 1 4 2 3 2 3 3 4 2 6 5 2 5 13 10 7 6 5 5 5 3 5 5 10 11 10 11 13 14
23 21 20 19 17 17 17 20 18 4 3 5 3 5 3 4 1 2 4 1 5 3 5 5 6 6 3 3 3 1 3 1 1 1 2 2 4 11 10 8 6 4 1 0 2 3 4 8 10 12 13 12 14 15
18 19 19 21 20 19 19 13 15 13 3 3 4 3 1 1 4 5 7 5 4 2 3 2 4 3 3 3 4 2 2 2 1 2 3 3 8 10 10 6 6 7 7 9 11 12 11 10 10 12 14 15 16 16
18 20 21 25 26 18 16 15 14 2 2 4 2 4 3 1 2 3 5 4 4 1 1 4 3 2 1 2 1 2 2 1 3 3 5 7 14 11 7 6 7 9 9 11 12 13 14 14 13 14 13 13 15 15
15 18 19 15 15 20 17 14 14 6 5 6 5 5 5 4 5 6 5 1 3 3 2 2 3 2 2 3 2 2 3 5 6 5 6 10 11 7 6 7 7 8 8 11 11 12 13 13 14 15 13 13 15 15
13 9 9 17 17 15 11 8 5 4 4 4 7 7 8 4 7 7 6 3 3 3 1 2 3 3 5 4 5 7 4 7 6 7 10 9 8 8 8 9 9 10 11 12 12 13 14 14 15 16 16 15 14 14
6 2 14 17 16 15 13 6 5 6 5 4 4 7 7 3 5 8 7 7 4 1 3 3 6 7 3 5 6 7 6 5 8 8 9 11 10 10 11 11 11 12 13 14 15 15 15 15 15 16 17 15 15 14
4 12 20 18 12 6 3 3 4 6 7 5 4 7 6 6 8 6 6 8 2 3 4 7 4 9 7 6 5 5 4 7 6 8 10 12 14 14 13 15 14 14 16 15 15 16 15 15 15 12 14 14 14 13
12 12 15 11 5 4 4 4 4 6 7 3 5 5 4 9 10 10 10 10 9 8 7 6 9 6 5 5 6 7 7 6 4 7 10 14 15 14 15 15 16 17 18 17 16 13 13 16 12 9 9 8 8 7
19 17 13 7 4 3 5 4 3 5 4 2 3 10 11 9 10 11 13 12 11 8 11 9 6 6 5 6 7 6 7 7 5 7 10 11 10 14 16 13 12 14 13 15 15 15 12 12 11 11 10 10 9 8
10 5 7 4 3 6 5 3 5 3 4 3 3 6 8 10 14 14 12 11 11 9 8 8 8 8 9 9 7 7 10 10 11 8 8 9 10 11 11 11 12 12 12 11 12 12 13 11 9 9 10 9 8 8
3 2 2 4 4 5 5 6 4 2 3 4 4 4 5 6 8 11 9 11 8 9 6 6 7 7 9 13 11 12 12 13 13 11 13 11 11 11 11 10 10 12 12 11 10 10 10 9 8 9 9 8 8 8
4 4 4 5 6 6 3 3 4 5 4 3 3 5 5 5 5 4 7 7 6 7 8 7 10 11 11 11 13 15 14 13 11 11 10 10 10 10 10 11 11 10 10 10 9 9 9 10 10 9 8 8 8 7
6 7 6 5 6 5 2 5 3 3 4 3 4 5 5 4 3 5 6 4 5 6 7 9 6 6 8 12 11 10 9 8 9 10 9 8 9 10 10 10 10 10 9 8 8 8 8 8 8 8 9 9 9 9
8 9 5 7 4 5 5 5 5 4 5 5 4 4 4 2 4 5 4 3 5 6 6 6 7 7 7 8 8 9 11 8 8 10 9 8 6 6 7 8 9 10 8 7 8 8 8 8 8 8 9 9 10 9
9 8 6 5 4 5 4 4 5 5 4 4 5 3 2 4 5 5 3 3 4 4 4 5 5 6 7 7 6 7 7 5 5 8 8 8 8 7 6 6 6 7 8 7 7 8 8 7 7 7 7 7 7 8
7 6 5 4 3 5 6 5 4 4 5 5 3 3 3 5 4 4 4 3 3 4 4 4 4 6 6 6 6 6 6 7 8 7 6 7 8 8 7 7 7 5 5 6 6 6 6 6 6 7 6 6 7 6
6 6 5 5 6 5 5 4 5 5 4 3 2 5 4 3 4 3 3 4 5 5 5 6 6 5 5 5 4 3 4 4 5 5 5 6 6 6 6 5 4 5 4 5 5 5 6 5 6 6 6 6 5 6
6 3 4 6 5 7 8 5 4 3 4 2 3 3 3 3 2 3 5 5 4 4 5 5 5 4 5 5 5 5 5 3 1 4 5 4 3 5 5 4 4 4 4 4 5 5 6 5 5 5 5 5 4 4
4 3 5 5 6 6 5 4 4 3 5 4 4 4 4 3 3 2 3 4 3 3 4 4 3 1 3 2 3 4 5 5 5 4 3 4 4 3 4 4 4 4 4 4 4 4 5 4 4 3 4 4 5 5
2 3 6 6 6 4 5 4 3 4 3 5 5 4 5 4 3 3 4 3 4 4 4 4 4 2 3 2 2 2 3 4 4 4 4 3 2 3 4 3 4 3 3 3 3 4 4 3 3 4 5 6 6 6
4 5 5 6 4 4 1 0 2 3 2 2 3 2 3 3 4 4 2 2 3 3 2 1 2 3 3 3 3 3 3 2 1 1 2 2 4 4 3 3 3 3 3 3 3 3 4 5 4 5 5 7 7 7
4 4 5 6 5 5 4 3 2 4 3 2 2 1 1 0 3 3 3 1 2 1 2 2 3 4 4 3 3 3 1 2 2 2 3 3 4 4 3 3 3 3 4 3 3 4 5 6 5 6 6 6 7 7
Wind_Direction
325 343 4 55 100 96 106 133 154 160 163 168 169 169 161 164 134 162 149 186 187 199 207 230 224 203 184 199 180 173 181 198 194 202 202 174 211 224 219 188 171 186 181 180 204 228 239 149 141 210 230 211 198 198
332 336 19 55 94 111 117 126 137 146 149 161 161 156 159 169 141 112 110 176 91 150 75 43 347 326 311 194 182 175 191 179 181 188 194 204 183 202 198 206 204 206 213 250 225 229 191 185 213 219 230 226 189 190
24 75 118 74 110 119 125 130 134 139 163 153 149 152 156 167 167 131 101 117 160 157 189 194 219 276 318 304 277 177 200 195 197 214 164 205 214 171 189 224 217 228 159 196 299 258 239 212 224 235 213 215 182 192
40 64 81 106 122 117 134 145 141 134 131 136 142 149 154 154 140 144 155 152 119 115 231 257 138 206 254 285 270 262 245 189 202 196 210 181 199 218 220 237 219 220 161 203 236 257 274 262 241 220 204 203 185 175
51 57 68 83 94 101 101 107 116 118 122 129 133 139 141 129 123 97 106 161 164 166 116 250 305 213 181 271 272 232 235 194 173 179 167 213 175 192 208 259 231 195 200 204 236 243 222 262 241 209 212 204 186 167
59 66 69 75 81 87 96 100 103 111 124 126 130 128 129 124 121 103 86 296 130 78 354 322 294 175 190 249 256 208 219 228 226 217 209 230 148 218 227 241 236 211 230 221 230 181 220 263 324 187 213 200 183 180
63 69 74 79 84 88 93 99 103 105 108 113 115 113 122 125 133 121 128 131 137 118 189 297 258 213 195 218 195 196 214 210 221 229 229 233 198 209 232 247 271 237 224 225 211 157 229 206 228 150 199 164 162 158
73 75 80 87 91 92 97 103 107 111 117 120 123 124 131 98 82 162 106 134 130 115 93 261 246 227 169 195 129 178 162 187 205 221 216 218 183 240 247 245 250 238 222 221 213 209 295 116 130 138 145 153 157 153
90 87 87 88 94 102 108 111 112 114 119 119 123 114 91 102 132 275 141 150 36 100 217 214 215 182 146 69 92 80 98 173 196 209 220 204 205 220 234 231 232 218 218 268 191 204 187 193 160 159 169 168 173 161
100 108 103 101 100 103 105 108 112 114 120 116 118 127 119 186 122 127 132 148 171 204 215 248 357 324 327 175 136 163 163 150 184 205 161 222 240 242 42 310 297 269 213 153 172 230 216 200 185 171 176 181 160 164
84 115 119 111 113 106 111 112 115 125 143 117 108 81 82 139 186 114 135 184 192 214 199 180 149 322 320 229 130 349 157 151 203 170 216 195 189 319 341 318 322 289 239 208 270 278 216 216 170 159 156 145 140 143
81 90 122 125 116 115 112 120 126 124 44 15 78 98 123 195 130 205 166 171 237 213 148 165 142 170 221 248 121 99 109 169 225 356 306 78 14 331 330 337 337 329 307 110 3 74 115 134 149 151 145 138 134 118
81 82 115 124 110 115 126 111 55 44 49 233 194 98 221 197 221 223 191 207 227 145 138 147 110 145 170 32 65 83 158 136 106 59 78 50 338 333 338 352 18 24 59 79 77 77 79 90 116 122 110 111 113 111
81 81 103 119 101 95 81 69 63 128 58 56 47 113 331 10 315 2 332 1 336 14 46 97 88 72 83 86 104 153 81 195 92 59 49 359 344 332 349 14 45 41 53 73 78 85 85 87 84 88 96 104 109 106
96 94 101 106 83 91 91 75 53 40 47 40 3 31 55 19 343 343 332 301 351 313 298 90 64 57 63 111 33 119 101 70 36 27 355 333 330 343 18 35 47 52 60 68 70 77 84 88 86 81 81 89 90 93
117 92 104 111 96 81 85 77 46 54 60 63 38 351 350 359 352 346 336 329 313 321 67 48 79 94 52 31 56 20 56 45 17 347 320 316 5 28 49 62 65 69 71 75 76 80 81 81 83 85 79 75 76 82
122 103 135 109 90 66 46 59 54 47 39 41 47 23 353 331 327 334 330 322 281 350 59 79 54 37 21 56 55 21 37 355 333 345 348 4 31 45 53 61 63 70 75 78 80 76 79 84 85 80 80 78 82 83
103 128 124 120 100 73 70 52 80 54 58 23 16 9 27 5 350 360 347 358 26 82 49 58 43 38 35 39 48 12 340 332 9 16 21 19 39 47 53 61 61 66 69 71 74 77 74 75 77 79 86 88 88 85
131 126 114 91 82 98 76 49 56 88 44 45 29 13 35 22 17 13 14 19 41 54 86 64 54 40 41 19 351 342 346 347 14 36 40 36 36 46 56 59 61 64 66 66 67 67 67 66 71 74 75 79 80 77
93 97 86 63 44 72 81 61 62 81 52 94 62 56 54 40 20 23 26 28 38 56 47 51 43 30 19 11 0 7 354 346 87 68 50 39 37 46 46 52 56 63 65 63 58 58 63 61 54 55 57 60 69 64
60 360 26 38 62 62 72 60 71 89 135 66 32 37 50 35 34 28 31 21 45 41 65 49 56 50 40 37 31 42 45 48 52 54 59 58 44 50 53 54 56 60 62 61 62 58 54 56 52 53 56 56 55 53
105 91 74 13 79 72 74 24 66 90 74 87 68 46 42 26 22 23 21 33 55 34 33 43 44 53 53 43 43 46 55 62 63 61 57 56 52 48 47 48 55 59 56 52 54 56 53 41 39 47 45 47 48 51
87 45 48 28 74 56 48 348 60 24 60 58 52 47 46 46 41 30 60 38 50 17 25 48 58 54 61 54 57 54 49 57 60 58 58 60 59 56 55 50 45 54 58 50 49 53 52 40 44 44 46 42 40 40
38 49 38 47 46 82 61 44 35 62 59 44 63 68 48 43 54 69 68 54 28 25 38 37 45 69 67 57 53 42 39 56 64 58 52 62 65 59 56 57 54 52 49 49 48 48 44 46 38 44 37 37 35 29
69 14 19 49 37 74 60 45 24 53 64 44 79 72 58 34 71 72 74 79 42 36 36 53 56 58 70 69 64 58 39 43 57 64 42 39 60 74 72 67 58 44 23 35 37 39 40 33 34 33 35 34 22 18
74 21 37 45 39 65 45 71 49 50 46 71 62 70 46 70 74 79 82 85 60 43 42 37 69 85 69 50 59 45 33 31 61 68 49 34 33 39 45 43 45 48 24 18 17 22 31 22 25 21 20 23 21 1
76 59 57 31 74 93 91 72 64 64 64 51 47 47 57 73 89 95 116 60 91 62 64 48 63 85 92 87 72 57 54 51 59 70 69 57 51 42 39 43 41 24 9 13 22 21 20 16 17 12 12 13 15 5
66 42 67 15 63 36 88 62 45 51 57 45 77 43 67 66 99 76 84 106 98 94 87 75 62 65 73 72 63 68 88 96 108 106 103 90 71 61 49 50 45 27 13 19 16 30 26 24 20 16 10 5 8 6
58 53 82 48 57 55 41 40 66 55 4 21 87 93 92 64 54 106 117 123 124 118 108 104 89 94 93 87 67 47 32 22 144 99 83 74 70 58 27 22 18 19 8 6 29 13 43 22 26 11 13 8 359 350
60 8 89 60 54 51 37 11 69 65 40 48 94 110 95 85 53 19 136 143 147 116 92 93 108 134 102 104 94 78 53 34 27 32 60 62 49 18 1 6 7 16 355 1 7 17 26 20 19 26 20 18 13 1
21 74 74 57 74 61 94 98 112 99 58 56 50 77 92 108 112 51 68 81 104 126 135 125 115 96 107 91 66 80 90 72 62 61 44 66 34 6 9 4 2 350 356 359 5 13 3 359 13 2 10 9 6 357
38 54 111 103 117 143 203 350 64 72 73 67 82 104 140 155 151 151 130 170 164 164 111 143 152 129 106 89 74 66 49 61 101 95 12 8 4 11 358 352 347 340 348 351 1 1 358 357 354 358 350 352 350 343
93 79 88 111 127 179 183 157 97 109 85 92 89 43 48 358 131 120 123 276 314 103 133 136 113 113 112 100 74 81 112 63 41 353 27 6 344 344 328 342 335 335 332 339 350 344 345 343 339 340 337 334 333 331